EW5549 Weather Reports


Display with metric or nautical units.
time (UTC)temp
F
wind
direction
speed
MPH
gust
MPH
rain 1hr
in
rain 24hr
in
rain mn
in
humidity
%
barometer
mb
20260505111729 33 170 0.0 0.0 0.00 0.00 0.00 75 1018.3
20260505111225 33 159 0.0 1.0 0.00 0.00 0.00 74 1018.3
20260505110721 33 164 1.0 1.0 0.00 0.00 0.00 73 1018.2
20260505110219 34 178 1.0 2.0 0.00 0.00 0.00 74 1018.3
20260505102154 35 13 0.0 0.0 0.00 0.00 0.00 71 1018.3
20260505101653 35 1 0.0 0.0 0.00 0.00 0.00 71 1018.0
20260505101149 36 267 0.0 1.0 0.00 0.00 0.00 69 1018.2
20260505100645 36 265 2.0 2.0 0.00 0.00 0.00 68 1018.0
20260505100142 36 273 3.0 3.0 0.00 0.00 0.00 69 1017.9
20260505095638 35 259 3.0 3.0 0.00 0.00 0.00 69 1018.2
20260505095136 35 244 0.0 0.0 0.00 0.00 0.00 71 1018.2
20260505094631 35 243 1.0 1.0 0.00 0.00 0.00 70 1018.3
20260505094128 35 242 1.0 1.0 0.00 0.00 0.00 70 1017.9
20260505093624 35 243 2.0 2.0 0.00 0.00 0.00 70 1017.9
20260505093121 35 235 2.0 2.0 0.00 0.00 0.00 70 1017.9
20260505092619 35 118 0.0 0.0 0.00 0.00 0.00 71 1017.8
20260505092118 34 107 0.0 0.0 0.00 0.00 0.00 72 1017.7
20260505091613 34 135 0.0 0.0 0.00 0.00 0.00 72 1017.9
20260505091112 35 135 0.0 0.0 0.00 0.00 0.00 71 1017.9
20260505090610 35 135 0.0 0.0 0.00 0.00 0.00 70 1018.0
20260505090108 35 109 1.0 1.0 0.00 0.00 0.00 70 1017.9
20260505085605 34 86 0.0 0.0 0.00 0.00 0.00 72 1018.0
20260505085103 35 135 0.0 0.0 0.00 0.00 0.00 71 1017.9
20260505084600 35 133 2.0 2.0 0.00 0.00 0.00 71 1017.9
20260505084058 35 103 2.0 2.0 0.00 0.00 0.00 71 1018.0
20260505083555 35 101 1.0 1.0 0.00 0.00 0.00 72 1018.0
20260505083052 34 101 1.0 2.0 0.00 0.00 0.00 75 1018.0
20260505082548 34 101 0.0 1.0 0.00 0.00 0.00 74 1017.9
20260505082045 33 95 1.0 1.0 0.00 0.00 0.00 75 1017.9
20260505081541 33 93 1.0 1.0 0.00 0.00 0.00 77 1017.9
20260505081038 33 92 2.0 2.0 0.00 0.00 0.00 76 1018.2
20260505080534 35 83 1.0 2.0 0.00 0.00 0.00 72 1018.0
20260505080031 35 74 0.0 0.0 0.00 0.00 0.00 72 1018.2
20260505075527 35 106 0.0 0.0 0.00 0.00 0.00 72 1018.2
20260505075024 35 106 0.0 0.0 0.00 0.00 0.00 72 1018.0
20260505074521 35 106 0.0 0.0 0.00 0.00 0.00 73 1018.0
20260505074019 35 106 0.0 1.0 0.00 0.00 0.00 73 1017.8
20260505073516 35 84 0.0 0.0 0.00 0.00 0.00 73 1018.0
20260505073014 36 84 0.0 0.0 0.00 0.00 0.00 71 1017.9
20260505072509 34 100 2.0 2.0 0.00 0.00 0.00 74 1017.9
20260505072006 36 85 3.0 3.0 0.00 0.00 0.00 69 1017.9
20260505071502 36 195 0.0 0.0 0.00 0.00 0.00 67 1017.9
20260505071000 37 195 0.0 0.0 0.00 0.00 0.00 67 1017.9
20260505070456 38 194 0.0 0.0 0.00 0.00 0.00 66 1018.0
20260505065952 37 194 0.0 0.0 0.00 0.00 0.00 66 1017.9
20260505065448 38 194 0.0 0.0 0.00 0.00 0.00 64 1018.2
20260505064945 38 194 0.0 0.0 0.00 0.00 0.00 65 1018.2
20260505064442 39 194 0.0 0.0 0.00 0.00 0.00 60 1017.9
20260505063941 39 194 0.0 0.0 0.00 0.00 0.00 59 1017.8
20260505063437 39 194 0.0 0.0 0.00 0.00 0.00 61 1017.9
20260505062933 39 233 2.0 2.0 0.00 0.00 0.00 60 1018.0
20260505062431 40 296 0.0 0.0 0.00 0.00 0.00 59 1018.0
20260505061927 41 278 0.0 0.0 0.00 0.00 0.00 56 1017.9
20260505061426 41 285 1.0 1.0 0.00 0.00 0.00 56 1017.7
20260505060923 41 292 2.0 2.0 0.00 0.00 0.00 55 1017.9
20260505060420 42 311 3.0 3.0 0.00 0.00 0.00 54 1017.8
20260505055916 42 0 1.0 2.0 0.00 0.00 0.00 54 1017.9
20260505055412 43 7 0.0 0.0 0.00 0.00 0.00 52 1017.7
20260505054909 43 5 2.0 2.0 0.00 0.00 0.00 51 1018.2
20260505054406 44 240 3.0 3.0 0.00 0.00 0.00 50 1017.7
20260505053904 44 246 3.0 3.0 0.00 0.00 0.00 49 1017.8
20260505053401 43 137 1.0 1.0 0.00 0.00 0.00 50 1017.7
20260505052858 43 136 1.0 1.0 0.00 0.00 0.00 53 1018.0
20260505052355 43 137 1.0 2.0 0.00 0.00 0.00 52 1017.9
20260505051852 43 136 0.0 0.0 0.00 0.00 0.00 52 1017.8
20260505051349 43 136 0.0 1.0 0.00 0.00 0.00 53 1017.8
20260505050847 42 136 0.0 0.0 0.00 0.00 0.00 54 1017.8
20260505050346 43 136 1.0 1.0 0.00 0.00 0.00 54 1017.9
20260505041313 45 322 5.0 6.0 0.00 0.00 0.00 49 1017.7
20260505040810 45 327 3.0 3.0 0.00 0.00 0.00 50 1017.6
20260505040307 45 328 3.0 3.0 0.00 0.00 0.00 50 1017.8
20260505035804 46 333 2.0 3.0 0.00 0.00 0.00 48 1017.6
20260505035259 46 295 3.0 5.0 0.00 0.00 0.00 48 1017.7
20260505034757 46 305 3.0 3.0 0.00 0.00 0.00 49 1017.5
20260505034254 45 333 3.0 3.0 0.00 0.00 0.00 50 1017.4
20260505033750 44 2 3.0 3.0 0.00 0.00 0.00 52 1017.5
20260505033248 44 9 2.0 2.0 0.00 0.00 0.00 55 1017.6
20260505032746 45 2 2.0 3.0 0.00 0.00 0.00 53 1017.3
20260505032241 46 2 1.0 1.0 0.00 0.00 0.00 52 1017.5
20260505031739 46 357 1.0 1.0 0.00 0.00 0.00 50 1017.4
20260505031235 46 316 3.0 3.0 0.00 0.00 0.00 49 1017.2
20260505030732 46 20 0.0 1.0 0.00 0.00 0.00 52 1017.0
20260505030228 46 350 2.0 2.0 0.00 0.00 0.00 53 1017.2
20260505025724 47 4 2.0 2.0 0.00 0.00 0.00 50 1016.9
20260505025223 47 17 2.0 2.0 0.00 0.00 0.00 48 1017.2
20260505024720 47 353 2.0 5.0 0.00 0.00 0.00 47 1016.9
20260505024217 47 14 2.0 2.0 0.00 0.00 0.00 48 1016.9
20260505023715 48 329 3.0 3.0 0.00 0.00 0.00 48 1017.0
20260505023212 48 331 3.0 3.0 0.00 0.00 0.00 47 1016.9
20260505022709 48 314 5.0 7.0 0.00 0.00 0.00 47 1017.2
20260505022206 48 347 3.0 5.0 0.00 0.00 0.00 49 1017.0
20260505021703 48 19 3.0 3.0 0.00 0.00 0.00 50 1017.0
20260505021200 49 2 2.0 3.0 0.00 0.00 0.00 50 1016.8
20260505020655 49 0 4.0 5.0 0.00 0.00 0.00 48 1016.9
20260505020151 50 325 3.0 5.0 0.00 0.00 0.00 46 1016.9
20260505015649 50 332 7.0 9.0 0.00 0.00 0.00 44 1016.6
20260505015145 50 19 7.0 9.0 0.00 0.00 0.00 45 1016.7
20260505014642 51 2 6.0 8.0 0.00 0.00 0.00 45 1016.8
20260505014139 51 351 4.0 7.0 0.00 0.00 0.00 46 1016.8
20260505013637 51 20 5.0 6.0 0.00 0.00 0.00 46 1016.7
20260505013133 51 45 5.0 6.0 0.00 0.00 0.00 47 1016.8
20260505012632 51 355 5.0 7.0 0.00 0.00 0.00 48 1016.8
20260505012128 51 13 6.0 8.0 0.00 0.00 0.00 49 1016.6
20260505011624 51 354 5.0 7.0 0.00 0.00 0.00 49 1016.6
20260505011122 51 335 3.0 5.0 0.00 0.00 0.00 52 1016.7
20260505010617 51 14 5.0 8.0 0.00 0.00 0.00 53 1016.7
20260505010114 52 5 3.0 3.0 0.00 0.00 0.00 53 1016.8
20260505005610 52 358 6.0 8.0 0.00 0.00 0.00 49 1016.7
20260505005107 52 321 6.0 9.0 0.00 0.00 0.00 51 1016.6
20260505004604 52 348 3.0 3.0 0.00 0.00 0.00 50 1016.7
20260505004101 52 20 6.0 8.0 0.00 0.00 0.00 51 1016.8
20260505003558 52 329 4.0 6.0 0.00 0.00 0.00 50 1016.7
20260505003055 53 54 4.0 6.0 0.00 0.00 0.00 50 1016.7
20260505002555 53 336 4.0 5.0 0.00 0.00 0.00 50 1016.7
20260505002049 53 346 4.0 5.0 0.00 0.00 0.00 50 1016.7
20260505001546 53 326 5.0 7.0 0.00 0.00 0.00 49 1016.7
20260505001043 53 349 5.0 7.0 0.00 0.00 0.00 51 1016.7
20260505000541 53 54 3.0 6.0 0.00 0.00 0.00 51 1016.5
20260505000038 53 357 6.0 7.0 0.00 0.00 0.00 50 1016.5
20260504235535 53 322 5.0 9.0 0.00 0.00 0.00 49 1016.5
20260504235031 54 327 7.0 9.0 0.00 0.00 0.00 49 1016.3
20260504234528 54 45 6.0 10.0 0.00 0.00 0.00 48 1016.5
20260504234025 54 295 7.0 10.0 0.00 0.00 0.00 49 1016.4
20260504233520 55 1 8.0 9.0 0.00 0.00 0.00 48 1016.3
20260504233018 55 3 9.0 11.0 0.00 0.00 0.00 49 1016.1
20260504232515 54 311 7.0 8.0 0.00 0.00 0.00 48 1016.3
20260504232012 55 314 9.0 11.0 0.00 0.00 0.00 45 1016.0
20260504231509 56 288 9.0 14.0 0.00 0.00 0.00 45 1016.0
20260504231005 56 323 5.0 6.0 0.00 0.00 0.00 47 1016.1
20260504230501 56 10 8.0 9.0 0.00 0.00 0.00 45 1016.1
20260504230000 57 319 11.0 15.0 0.00 0.00 0.00 44 1015.8
20260504225457 58 342 7.0 9.0 0.00 0.00 0.00 43 1015.8
20260504224954 58 322 4.0 6.0 0.00 0.00 0.00 43 1015.9
20260504224450 57 0 11.0 13.0 0.00 0.00 0.00 44 1015.8
20260504223947 57 266 8.0 11.0 0.00 0.00 0.00 46 1015.9
20260504223444 58 5 6.0 8.0 0.00 0.00 0.00 43 1015.6
20260504222939 58 322 4.0 8.0 0.00 0.00 0.00 44 1015.7
20260504222437 58 347 8.0 9.0 0.00 0.00 0.00 44 1015.7
20260504221935 58 3 5.0 7.0 0.00 0.00 0.00 43 1015.6
20260504221431 59 2 5.0 8.0 0.00 0.00 0.00 42 1015.5
20260504220928 59 22 5.0 7.0 0.00 0.00 0.00 41 1015.8
20260504220425 59 338 5.0 6.0 0.00 0.00 0.00 40 1015.9
20260504215922 59 358 5.0 7.0 0.00 0.00 0.00 42 1015.6
20260504215419 59 227 7.0 10.0 0.00 0.00 0.00 41 1015.6
20260504214915 59 10 5.0 8.0 0.00 0.00 0.00 40 1015.7
20260504214412 59 353 4.0 7.0 0.00 0.00 0.00 38 1015.6
20260504213909 58 320 6.0 8.0 0.00 0.00 0.00 40 1015.7
20260504213404 59 330 5.0 8.0 0.00 0.00 0.00 38 1015.8
20260504212903 59 309 5.0 7.0 0.00 0.00 0.00 40 1015.7
20260504212358 58 319 5.0 6.0 0.00 0.00 0.00 38 1015.9
20260504211856 57 24 2.0 2.0 0.00 0.00 0.00 40 1015.8
20260504211352 56 256 2.0 2.0 0.00 0.00 0.00 39 1015.9
20260504210849 56 251 5.0 6.0 0.00 0.00 0.00 40 1016.1
20260504210346 57 333 2.0 2.0 0.00 0.00 0.00 41 1016.0
20260504205843 58 34 4.0 5.0 0.00 0.00 0.00 38 1016.1
20260504205341 57 288 9.0 9.0 0.00 0.00 0.00 39 1016.3
20260504204839 57 331 5.0 8.0 0.00 0.00 0.00 42 1016.0
20260504204337 56 15 8.0 10.0 0.00 0.00 0.00 41 1016.6
20260504203836 56 11 7.0 9.0 0.00 0.00 0.00 41 1016.1
20260504203333 57 322 5.0 7.0 0.00 0.00 0.00 42 1016.3
20260504202828 57 335 3.0 3.0 0.00 0.00 0.00 43 1016.4
20260504202326 55 233 3.0 5.0 0.00 0.00 0.00 41 1016.4
20260504201822 55 298 4.0 5.0 0.00 0.00 0.00 41 1016.5
20260504201320 56 99 1.0 1.0 0.00 0.00 0.00 38 1016.4
20260504200817 55 351 3.0 3.0 0.00 0.00 0.00 39 1016.5
20260504200314 55 303 3.0 3.0 0.00 0.00 0.00 39 1016.5
20260504195810 55 295 2.0 2.0 0.00 0.00 0.00 39 1016.7
20260504195306 55 350 3.0 3.0 0.00 0.00 0.00 41 1016.8
20260504194803 55 20 3.0 5.0 0.00 0.00 0.00 43 1016.7
20260504194259 56 13 6.0 9.0 0.00 0.00 0.00 40 1016.6
20260504193755 56 333 5.0 7.0 0.00 0.00 0.00 39 1016.5
20260504193253 55 122 6.0 8.0 0.00 0.00 0.00 41 1016.7
20260504192751 56 30 5.0 6.0 0.00 0.00 0.00 39 1016.6
20260504192249 55 354 5.0 7.0 0.00 0.00 0.00 42 1016.5
20260504191747 55 6 5.0 6.0 0.00 0.00 0.00 41 1016.6
20260504191244 55 38 6.0 9.0 0.00 0.00 0.00 42 1016.7
20260504190739 54 341 5.0 7.0 0.00 0.00 0.00 44 1016.6
20260504190236 54 320 6.0 8.0 0.00 0.00 0.00 42 1016.8
20260504185732 54 11 5.0 7.0 0.00 0.00 0.00 43 1016.8
20260504185229 54 13 5.0 7.0 0.00 0.00 0.00 44 1016.6
20260504184725 54 23 3.0 3.0 0.00 0.00 0.00 46 1016.5
20260504184221 54 31 7.0 9.0 0.00 0.00 0.00 44 1016.7
20260504183717 54 34 4.0 5.0 0.00 0.00 0.00 47 1016.8
20260504183214 54 12 6.0 7.0 0.00 0.00 0.00 45 1016.9
20260504182713 54 14 6.0 8.0 0.00 0.00 0.00 47 1016.9
20260504182209 54 42 6.0 7.0 0.00 0.00 0.00 46 1016.8
20260504181707 55 14 4.0 5.0 0.00 0.00 0.00 46 1016.8
20260504181204 54 1 1.0 2.0 0.00 0.00 0.00 46 1016.8
20260504180703 55 352 3.0 5.0 0.00 0.00 0.00 45 1016.8
20260504180202 55 7 2.0 2.0 0.00 0.00 0.00 45 1016.8
20260504175658 55 295 5.0 5.0 0.00 0.00 0.00 43 1016.8
20260504175155 55 16 2.0 2.0 0.00 0.00 0.00 43 1016.8
20260504174653 55 34 0.0 1.0 0.00 0.00 0.00 43 1016.9
20260504174150 55 49 1.0 2.0 0.00 0.00 0.00 47 1016.6
20260504173647 55 356 1.0 3.0 0.00 0.00 0.00 45 1016.8
20260504173144 55 320 0.0 1.0 0.00 0.00 0.00 45 1016.8
20260504172641 56 349 1.0 2.0 0.00 0.00 0.00 43 1016.9
20260504172137 55 61 0.0 0.0 0.00 0.00 0.00 44 1016.9
20260504171633 55 255 0.0 0.0 0.00 0.00 0.00 43 1016.9
20260504171131 54 292 1.0 1.0 0.00 0.00 0.00 45 1016.9
20260504170627 55 122 1.0 2.0 0.00 0.00 0.00 44 1016.9
20260504170125 56 36 2.0 3.0 0.00 0.00 0.00 45 1016.9
20260504151010 50 296 3.0 3.0 0.00 0.00 0.00 53 1017.5
20260504150508 50 239 4.0 5.0 0.00 0.00 0.00 53 1017.6
20260504140933 48 288 4.0 5.0 0.00 0.00 0.00 59 1017.6
20260504140430 47 259 3.0 3.0 0.00 0.00 0.00 59 1017.6
20260504130355 44 293 2.0 2.0 0.00 0.00 0.00 65 1017.2
20260504120318 42 327 1.0 2.0 0.00 0.00 0.00 65 1016.7